| time (UTC) | temp C | wind direction | speed KPH | gust KPH | rain 1hr cm | rain 24hr cm | rain mn cm | humidity % | barometer mb |
| 20260507165853 | 22 | 73 | 0.0 | 3.2 | 0.00 | 0.00 | 0.00 | 77 | 1019.1 |
| 20260507165349 | 22 | 33 | 3.2 | 6.4 | 0.00 | 0.00 | 0.00 | 78 | 1018.9 |
| 20260507164845 | 21 | 358 | 0.0 | 3.2 | 0.00 | 0.00 | 0.00 | 81 | 1018.8 |
| 20260507164342 | 21 | 341 | 1.6 | 3.2 | 0.00 | 0.00 | 0.00 | 83 | 1018.6 |
| 20260507163839 | 21 | 339 | 3.2 | 4.8 | 0.00 | 0.00 | 0.00 | 83 | 1018.5 |
| 20260507163337 | 21 | 345 | 1.6 | 3.2 | 0.00 | 0.00 | 0.00 | 82 | 1018.6 |
| 20260507162833 | 21 | 15 | 3.2 | 3.2 | 0.00 | 0.00 | 0.00 | 82 | 1018.5 |
| 20260507162329 | 21 | 338 | 3.2 | 4.8 | 0.00 | 0.00 | 0.00 | 82 | 1018.4 |
| 20260507161826 | 21 | 346 | 1.6 | 4.8 | 0.00 | 0.00 | 0.00 | 82 | 1018.3 |
| 20260507161322 | 21 | 18 | 3.2 | 6.4 | 0.00 | 0.00 | 0.00 | 82 | 1018.2 |
| 20260507160819 | 21 | 43 | 4.8 | 8.0 | 0.00 | 0.00 | 0.00 | 82 | 1018.2 |
| 20260507160315 | 21 | 50 | 3.2 | 8.0 | 0.00 | 0.00 | 0.00 | 82 | 1018.2 |
| 20260507155811 | 20 | 48 | 4.8 | 6.4 | 0.00 | 0.00 | 0.00 | 83 | 1017.9 |
| 20260507155307 | 20 | 42 | 4.8 | 8.0 | 0.00 | 0.00 | 0.00 | 83 | 1017.9 |
| 20260507154804 | 20 | 15 | 3.2 | 6.4 | 0.00 | 0.00 | 0.00 | 84 | 1018.1 |
| 20260507154301 | 20 | 21 | 4.8 | 4.8 | 0.00 | 0.00 | 0.00 | 83 | 1017.8 |
| 20260507153758 | 20 | 11 | 3.2 | 3.2 | 0.00 | 0.00 | 0.00 | 83 | 1017.9 |
| 20260507153254 | 20 | 19 | 3.2 | 4.8 | 0.00 | 0.00 | 0.00 | 83 | 1017.7 |
| 20260507152751 | 20 | 15 | 3.2 | 3.2 | 0.00 | 0.00 | 0.00 | 82 | 1017.7 |
| 20260507152248 | 20 | 17 | 3.2 | 4.8 | 0.00 | 0.00 | 0.00 | 82 | 1017.7 |
| 20260507151743 | 20 | 17 | 4.8 | 4.8 | 0.00 | 0.00 | 0.00 | 82 | 1017.4 |
| 20260507151240 | 20 | 20 | 3.2 | 4.8 | 0.00 | 0.00 | 0.00 | 83 | 1017.3 |
| 20260507150737 | 20 | 12 | 3.2 | 4.8 | 0.00 | 0.00 | 0.00 | 83 | 1017.3 |
| 20260507150234 | 20 | 7 | 3.2 | 3.2 | 0.00 | 0.00 | 0.00 | 83 | 1017.5 |
| 20260507145730 | 20 | 4 | 3.2 | 4.8 | 0.00 | 0.00 | 0.00 | 83 | 1017.3 |
| 20260507145226 | 20 | 359 | 3.2 | 6.4 | 0.00 | 0.00 | 0.00 | 83 | 1017.3 |
| 20260507144723 | 20 | 13 | 3.2 | 4.8 | 0.00 | 0.00 | 0.00 | 83 | 1017.1 |
| 20260507144221 | 20 | 53 | 4.8 | 4.8 | 0.00 | 0.00 | 0.00 | 84 | 1017.2 |
| 20260507143717 | 20 | 8 | 3.2 | 3.2 | 0.00 | 0.00 | 0.00 | 84 | 1017.2 |
| 20260507143215 | 20 | 9 | 3.2 | 4.8 | 0.00 | 0.00 | 0.00 | 84 | 1017.2 |
| 20260507142710 | 20 | 9 | 3.2 | 4.8 | 0.00 | 0.00 | 0.00 | 84 | 1016.9 |
| 20260507142207 | 20 | 359 | 3.2 | 4.8 | 0.00 | 0.00 | 0.00 | 85 | 1017.0 |
| 20260507141703 | 20 | 357 | 3.2 | 3.2 | 0.00 | 0.00 | 0.00 | 86 | 1017.2 |
| 20260507141200 | 20 | 349 | 3.2 | 3.2 | 0.00 | 0.00 | 0.00 | 86 | 1017.4 |
| 20260507140657 | 20 | 350 | 1.6 | 4.8 | 0.00 | 0.00 | 0.00 | 86 | 1017.2 |
| 20260507140154 | 20 | 9 | 3.2 | 4.8 | 0.00 | 0.00 | 0.00 | 86 | 1017.3 |
| 20260507135651 | 20 | 348 | 3.2 | 4.8 | 0.00 | 0.00 | 0.00 | 87 | 1017.3 |
| 20260507135149 | 20 | 352 | 3.2 | 4.8 | 0.00 | 0.00 | 0.00 | 87 | 1017.5 |
| 20260507134645 | 20 | 351 | 3.2 | 4.8 | 0.00 | 0.00 | 0.00 | 88 | 1017.4 |
| 20260507134141 | 20 | 356 | 3.2 | 3.2 | 0.00 | 0.00 | 0.00 | 88 | 1017.7 |
| 20260507133637 | 20 | 359 | 1.6 | 3.2 | 0.00 | 0.00 | 0.00 | 89 | 1017.4 |
| 20260507133135 | 20 | 356 | 3.2 | 3.2 | 0.00 | 0.00 | 0.00 | 89 | 1017.5 |
| 20260507132632 | 20 | 358 | 3.2 | 4.8 | 0.00 | 0.00 | 0.00 | 88 | 1017.5 |
| 20260507132127 | 20 | 335 | 3.2 | 3.2 | 0.00 | 0.00 | 0.00 | 89 | 1017.8 |
| 20260507131624 | 20 | 351 | 3.2 | 3.2 | 0.00 | 0.00 | 0.00 | 88 | 1017.5 |
| 20260507131122 | 20 | 346 | 3.2 | 3.2 | 0.00 | 0.00 | 0.00 | 88 | 1017.5 |
| 20260507130619 | 20 | 349 | 3.2 | 3.2 | 0.00 | 0.00 | 0.00 | 88 | 1017.9 |
| 20260507130117 | 20 | 351 | 3.2 | 4.8 | 0.00 | 0.00 | 0.00 | 88 | 1017.7 |
| 20260507125615 | 20 | 358 | 3.2 | 3.2 | 0.00 | 0.00 | 0.00 | 87 | 1018.0 |
| 20260507125112 | 20 | 337 | 3.2 | 4.8 | 0.00 | 0.00 | 0.00 | 86 | 1017.8 |
| 20260507124608 | 20 | 346 | 3.2 | 3.2 | 0.00 | 0.00 | 0.00 | 86 | 1017.9 |
| 20260507124107 | 20 | 349 | 3.2 | 4.8 | 0.00 | 0.00 | 0.00 | 86 | 1017.9 |
| 20260507123604 | 20 | 346 | 3.2 | 3.2 | 0.00 | 0.00 | 0.00 | 86 | 1017.8 |
| 20260507123101 | 20 | 339 | 3.2 | 3.2 | 0.00 | 0.00 | 0.00 | 86 | 1017.9 |
| 20260507122556 | 20 | 321 | 3.2 | 4.8 | 0.00 | 0.00 | 0.00 | 86 | 1018.0 |
| 20260507122052 | 20 | 350 | 3.2 | 6.4 | 0.00 | 0.00 | 0.00 | 86 | 1018.1 |
| 20260507121548 | 20 | 6 | 1.6 | 4.8 | 0.00 | 0.00 | 0.00 | 86 | 1018.0 |
| 20260507121044 | 20 | 352 | 3.2 | 3.2 | 0.00 | 0.00 | 0.00 | 86 | 1018.3 |
| 20260507120540 | 20 | 3 | 3.2 | 3.2 | 0.00 | 0.00 | 0.00 | 86 | 1018.0 |
| 20260507120038 | 20 | 335 | 3.2 | 3.2 | 0.00 | 0.00 | 0.00 | 86 | 1018.2 |
| 20260507115534 | 20 | 322 | 3.2 | 3.2 | 0.00 | 0.00 | 0.00 | 86 | 1018.2 |
| 20260507115030 | 20 | 343 | 4.8 | 4.8 | 0.00 | 0.00 | 0.00 | 86 | 1018.2 |
| 20260507114526 | 20 | 359 | 3.2 | 4.8 | 0.00 | 0.00 | 0.00 | 85 | 1018.4 |
| 20260507114023 | 20 | 356 | 4.8 | 6.4 | 0.00 | 0.00 | 0.00 | 86 | 1018.5 |
| 20260507113520 | 20 | 346 | 1.6 | 6.4 | 0.00 | 0.00 | 0.00 | 86 | 1018.3 |
| 20260507113017 | 20 | 355 | 3.2 | 4.8 | 0.00 | 0.00 | 0.00 | 86 | 1018.4 |
| 20260507112515 | 20 | 2 | 3.2 | 4.8 | 0.00 | 0.00 | 0.00 | 86 | 1018.4 |
| 20260507112011 | 20 | 354 | 3.2 | 4.8 | 0.00 | 0.00 | 0.00 | 86 | 1018.5 |
| 20260507111510 | 20 | 346 | 3.2 | 3.2 | 0.00 | 0.00 | 0.00 | 86 | 1018.5 |
| 20260507111005 | 20 | 355 | 3.2 | 3.2 | 0.00 | 0.00 | 0.00 | 85 | 1018.7 |
| 20260507110502 | 20 | 356 | 3.2 | 4.8 | 0.00 | 0.00 | 0.00 | 85 | 1018.7 |
| 20260507105958 | 20 | 3 | 4.8 | 4.8 | 0.00 | 0.00 | 0.00 | 85 | 1018.5 |
| 20260507105455 | 20 | 335 | 3.2 | 3.2 | 0.00 | 0.00 | 0.00 | 85 | 1018.6 |
| 20260507104951 | 20 | 343 | 3.2 | 4.8 | 0.00 | 0.00 | 0.00 | 84 | 1018.6 |
| 20260507104449 | 20 | 352 | 4.8 | 6.4 | 0.00 | 0.00 | 0.00 | 84 | 1018.6 |
| 20260507103944 | 20 | 345 | 3.2 | 4.8 | 0.00 | 0.00 | 0.00 | 84 | 1018.8 |
| 20260507103441 | 20 | 340 | 3.2 | 3.2 | 0.00 | 0.00 | 0.00 | 83 | 1018.8 |
| 20260507102937 | 20 | 5 | 3.2 | 3.2 | 0.00 | 0.00 | 0.00 | 83 | 1018.6 |
| 20260507102434 | 21 | 350 | 3.2 | 4.8 | 0.00 | 0.00 | 0.00 | 83 | 1018.8 |
| 20260507101931 | 21 | 357 | 3.2 | 3.2 | 0.00 | 0.00 | 0.00 | 82 | 1018.9 |
| 20260507101426 | 21 | 0 | 3.2 | 3.2 | 0.00 | 0.00 | 0.00 | 82 | 1018.8 |
| 20260507100922 | 21 | 350 | 3.2 | 4.8 | 0.00 | 0.00 | 0.00 | 82 | 1018.9 |
| 20260507100420 | 21 | 349 | 3.2 | 4.8 | 0.00 | 0.00 | 0.00 | 82 | 1019.1 |
| 20260507095918 | 21 | 349 | 3.2 | 3.2 | 0.00 | 0.05 | 0.05 | 81 | 1019.2 |
| 20260507095415 | 21 | 350 | 3.2 | 4.8 | 0.00 | 0.05 | 0.05 | 81 | 1019.1 |
| 20260507094912 | 21 | 328 | 1.6 | 3.2 | 0.00 | 0.05 | 0.05 | 81 | 1019.0 |
| 20260507094408 | 21 | 27 | 3.2 | 4.8 | 0.00 | 0.05 | 0.05 | 81 | 1019.2 |
| 20260507093905 | 21 | 16 | 3.2 | 4.8 | 0.00 | 0.05 | 0.05 | 81 | 1019.2 |
| 20260507093404 | 21 | 0 | 3.2 | 3.2 | 0.00 | 0.05 | 0.05 | 81 | 1019.1 |
| 20260507092902 | 21 | 12 | 3.2 | 3.2 | 0.00 | 0.05 | 0.05 | 80 | 1019.1 |
| 20260507092357 | 21 | 359 | 3.2 | 3.2 | 0.00 | 0.05 | 0.05 | 80 | 1019.2 |
| 20260507091854 | 21 | 347 | 3.2 | 4.8 | 0.00 | 0.05 | 0.05 | 80 | 1019.2 |
| 20260507091350 | 21 | 316 | 3.2 | 4.8 | 0.00 | 0.05 | 0.05 | 80 | 1019.4 |
| 20260507090846 | 21 | 356 | 3.2 | 4.8 | 0.00 | 0.05 | 0.05 | 79 | 1019.5 |
| 20260507090343 | 21 | 357 | 3.2 | 4.8 | 0.00 | 0.05 | 0.05 | 79 | 1019.5 |
| 20260507085840 | 21 | 349 | 4.8 | 4.8 | 0.00 | 0.05 | 0.05 | 79 | 1019.4 |
| 20260507085336 | 21 | 336 | 4.8 | 4.8 | 0.00 | 0.05 | 0.05 | 79 | 1019.5 |
| 20260507084834 | 21 | 336 | 3.2 | 6.4 | 0.00 | 0.05 | 0.05 | 79 | 1019.3 |
| 20260507084330 | 21 | 350 | 3.2 | 3.2 | 0.00 | 0.05 | 0.05 | 78 | 1019.4 |
| 20260507083828 | 21 | 354 | 4.8 | 6.4 | 0.00 | 0.05 | 0.05 | 78 | 1019.4 |
| 20260507083324 | 21 | 336 | 1.6 | 6.4 | 0.00 | 0.05 | 0.05 | 77 | 1019.3 |
| 20260507082820 | 21 | 7 | 3.2 | 3.2 | 0.00 | 0.05 | 0.05 | 77 | 1019.4 |
| 20260507082316 | 21 | 12 | 3.2 | 4.8 | 0.00 | 0.05 | 0.05 | 77 | 1019.3 |
| 20260507081814 | 22 | 4 | 3.2 | 4.8 | 0.00 | 0.05 | 0.05 | 76 | 1019.2 |
| 20260507081309 | 22 | 7 | 3.2 | 3.2 | 0.00 | 0.05 | 0.05 | 75 | 1019.2 |
| 20260507080806 | 22 | 25 | 3.2 | 4.8 | 0.00 | 0.05 | 0.05 | 75 | 1019.3 |
| 20260507080302 | 22 | 32 | 4.8 | 4.8 | 0.00 | 0.05 | 0.05 | 75 | 1019.4 |
| 20260507075757 | 22 | 26 | 3.2 | 4.8 | 0.00 | 0.05 | 0.05 | 75 | 1019.1 |
| 20260507075254 | 22 | 18 | 3.2 | 4.8 | 0.00 | 0.05 | 0.05 | 76 | 1019.3 |
| 20260507074750 | 22 | 28 | 4.8 | 4.8 | 0.00 | 0.05 | 0.05 | 76 | 1019.0 |
| 20260507074249 | 22 | 11 | 3.2 | 4.8 | 0.00 | 0.05 | 0.05 | 76 | 1019.2 |
| 20260507073745 | 21 | 350 | 4.8 | 6.4 | 0.00 | 0.05 | 0.05 | 77 | 1019.2 |
| 20260507073241 | 21 | 13 | 3.2 | 6.4 | 0.00 | 0.05 | 0.05 | 77 | 1019.0 |
| 20260507072739 | 21 | 11 | 6.4 | 6.4 | 0.00 | 0.05 | 0.05 | 77 | 1019.2 |
| 20260507072237 | 21 | 0 | 4.8 | 8.0 | 0.00 | 0.05 | 0.05 | 78 | 1019.2 |
| 20260507071734 | 21 | 11 | 3.2 | 4.8 | 0.00 | 0.05 | 0.05 | 79 | 1019.0 |
| 20260507071230 | 21 | 347 | 4.8 | 4.8 | 0.00 | 0.05 | 0.05 | 79 | 1018.8 |
| 20260507070727 | 21 | 358 | 3.2 | 4.8 | 0.00 | 0.05 | 0.05 | 79 | 1019.0 |
| 20260507070224 | 21 | 19 | 3.2 | 8.0 | 0.00 | 0.05 | 0.05 | 80 | 1019.0 |
| 20260507065721 | 21 | 34 | 4.8 | 6.4 | 0.00 | 0.05 | 0.05 | 80 | 1019.0 |
| 20260507065218 | 21 | 356 | 1.6 | 6.4 | 0.00 | 0.05 | 0.05 | 80 | 1018.6 |
| 20260507064715 | 21 | 22 | 3.2 | 4.8 | 0.00 | 0.05 | 0.05 | 80 | 1018.6 |
| 20260507064214 | 21 | 7 | 4.8 | 6.4 | 0.00 | 0.05 | 0.05 | 80 | 1018.6 |
| 20260507063711 | 22 | 15 | 3.2 | 4.8 | 0.00 | 0.05 | 0.05 | 80 | 1018.5 |
| 20260507063207 | 22 | 11 | 4.8 | 6.4 | 0.00 | 0.05 | 0.05 | 80 | 1018.5 |
| 20260507062704 | 22 | 19 | 4.8 | 4.8 | 0.00 | 0.05 | 0.05 | 80 | 1018.5 |
| 20260507062202 | 22 | 26 | 4.8 | 6.4 | 0.00 | 0.05 | 0.05 | 80 | 1018.5 |
| 20260507061700 | 22 | 30 | 4.8 | 6.4 | 0.00 | 0.05 | 0.05 | 80 | 1018.2 |
| 20260507061157 | 22 | 23 | 6.4 | 8.0 | 0.00 | 0.05 | 0.05 | 80 | 1018.4 |
| 20260507060655 | 22 | 338 | 3.2 | 6.4 | 0.00 | 0.05 | 0.05 | 80 | 1018.1 |
| 20260507060151 | 22 | 29 | 3.2 | 8.0 | 0.00 | 0.05 | 0.05 | 80 | 1018.1 |
| 20260507055647 | 22 | 26 | 6.4 | 6.4 | 0.00 | 0.05 | 0.05 | 80 | 1018.0 |
| 20260507055143 | 22 | 39 | 6.4 | 8.0 | 0.00 | 0.05 | 0.05 | 80 | 1018.1 |
| 20260507054639 | 22 | 23 | 6.4 | 8.0 | 0.00 | 0.05 | 0.05 | 79 | 1018.1 |
| 20260507054136 | 22 | 24 | 4.8 | 6.4 | 0.00 | 0.05 | 0.05 | 80 | 1017.8 |
| 20260507053634 | 22 | 9 | 4.8 | 6.4 | 0.00 | 0.05 | 0.05 | 79 | 1017.9 |
| 20260507053132 | 22 | 350 | 4.8 | 6.4 | 0.00 | 0.05 | 0.05 | 79 | 1017.9 |
| 20260507052630 | 22 | 29 | 6.4 | 8.0 | 0.00 | 0.05 | 0.05 | 79 | 1017.9 |
| 20260507052126 | 22 | 31 | 3.2 | 6.4 | 0.00 | 0.05 | 0.05 | 79 | 1017.7 |
| 20260507051624 | 22 | 11 | 3.2 | 4.8 | 0.00 | 0.05 | 0.05 | 79 | 1017.7 |
| 20260507051121 | 22 | 21 | 3.2 | 4.8 | 0.00 | 0.05 | 0.05 | 79 | 1017.7 |
| 20260507050618 | 22 | 40 | 3.2 | 6.4 | 0.00 | 0.05 | 0.05 | 78 | 1017.5 |
| 20260507050114 | 22 | 9 | 3.2 | 4.8 | 0.00 | 0.05 | 0.05 | 78 | 1017.3 |
| 20260507045611 | 22 | 357 | 3.2 | 6.4 | 0.00 | 0.05 | 0.05 | 78 | 1017.5 |
| 20260507045108 | 22 | 52 | 6.4 | 6.4 | 0.00 | 0.05 | 0.05 | 79 | 1017.3 |
| 20260507044604 | 22 | 0 | 3.2 | 4.8 | 0.00 | 0.05 | 0.05 | 79 | 1017.2 |
| 20260507044102 | 22 | 317 | 3.2 | 6.4 | 0.00 | 0.05 | 0.05 | 79 | 1017.2 |
| 20260507043557 | 22 | 45 | 4.8 | 6.4 | 0.00 | 0.05 | 0.05 | 78 | 1017.3 |
| 20260507043055 | 22 | 3 | 4.8 | 6.4 | 0.00 | 0.05 | 0.05 | 79 | 1017.2 |
| 20260507042550 | 22 | 12 | 3.2 | 4.8 | 0.00 | 0.05 | 0.05 | 79 | 1016.9 |
| 20260507042046 | 22 | 13 | 3.2 | 6.4 | 0.00 | 0.05 | 0.05 | 79 | 1017.0 |
| 20260507041543 | 22 | 352 | 3.2 | 4.8 | 0.00 | 0.05 | 0.05 | 79 | 1017.0 |
| 20260507041040 | 22 | 20 | 3.2 | 6.4 | 0.00 | 0.05 | 0.05 | 79 | 1017.0 |
| 20260507040537 | 22 | 19 | 3.2 | 4.8 | 0.00 | 0.05 | 0.05 | 78 | 1017.0 |
| 20260507040033 | 22 | 26 | 3.2 | 6.4 | 0.00 | 0.05 | 0.05 | 78 | 1016.8 |
| 20260507035529 | 22 | 354 | 4.8 | 6.4 | 0.00 | 0.05 | 0.05 | 79 | 1016.8 |
| 20260507035026 | 22 | 32 | 3.2 | 4.8 | 0.00 | 0.05 | 0.05 | 79 | 1016.8 |
| 20260507034522 | 22 | 1 | 3.2 | 6.4 | 0.00 | 0.05 | 0.05 | 79 | 1016.8 |
| 20260507034020 | 23 | 1 | 3.2 | 4.8 | 0.00 | 0.05 | 0.05 | 79 | 1016.8 |
| 20260507033518 | 23 | 24 | 3.2 | 4.8 | 0.00 | 0.05 | 0.05 | 78 | 1016.6 |
| 20260507033015 | 23 | 2 | 4.8 | 4.8 | 0.00 | 0.05 | 0.05 | 79 | 1016.4 |
| 20260507032512 | 23 | 31 | 4.8 | 6.4 | 0.00 | 0.05 | 0.05 | 78 | 1016.4 |
| 20260507032008 | 23 | 19 | 4.8 | 6.4 | 0.00 | 0.05 | 0.05 | 78 | 1016.6 |
| 20260507031504 | 23 | 341 | 3.2 | 6.4 | 0.00 | 0.05 | 0.05 | 78 | 1016.6 |
| 20260507031002 | 23 | 27 | 4.8 | 4.8 | 0.00 | 0.05 | 0.05 | 79 | 1016.4 |
| 20260507030458 | 23 | 342 | 3.2 | 6.4 | 0.00 | 0.05 | 0.05 | 78 | 1016.5 |
| 20260507025955 | 23 | 345 | 3.2 | 8.0 | 0.00 | 0.05 | 0.05 | 78 | 1016.3 |
| 20260507025453 | 23 | 39 | 3.2 | 4.8 | 0.00 | 0.05 | 0.05 | 78 | 1016.4 |
| 20260507024951 | 23 | 15 | 4.8 | 4.8 | 0.00 | 0.05 | 0.05 | 79 | 1016.4 |
| 20260507024448 | 23 | 24 | 3.2 | 6.4 | 0.00 | 0.05 | 0.05 | 78 | 1016.4 |
| 20260507023943 | 23 | 19 | 3.2 | 4.8 | 0.00 | 0.05 | 0.05 | 79 | 1016.3 |
| 20260507023440 | 23 | 345 | 3.2 | 4.8 | 0.00 | 0.05 | 0.05 | 79 | 1016.4 |
| 20260507022938 | 23 | 332 | 3.2 | 6.4 | 0.00 | 0.05 | 0.05 | 79 | 1016.4 |
| 20260507022435 | 23 | 358 | 4.8 | 6.4 | 0.00 | 0.05 | 0.05 | 78 | 1016.4 |
| 20260507021930 | 23 | 327 | 4.8 | 4.8 | 0.00 | 0.05 | 0.05 | 79 | 1016.3 |
| 20260507021425 | 23 | 353 | 3.2 | 4.8 | 0.00 | 0.05 | 0.05 | 79 | 1016.5 |
| 20260507020924 | 23 | 333 | 3.2 | 6.4 | 0.00 | 0.05 | 0.05 | 79 | 1016.5 |
| 20260507020420 | 23 | 352 | 4.8 | 6.4 | 0.00 | 0.05 | 0.05 | 79 | 1016.5 |
| 20260507015917 | 23 | 342 | 3.2 | 4.8 | 0.00 | 0.05 | 0.05 | 79 | 1016.4 |
| 20260507015415 | 23 | 346 | 3.2 | 4.8 | 0.00 | 0.05 | 0.05 | 81 | 1016.4 |
| 20260507014912 | 23 | 344 | 4.8 | 9.7 | 0.00 | 0.05 | 0.05 | 80 | 1016.5 |
| 20260507014408 | 23 | 21 | 6.4 | 8.0 | 0.00 | 0.05 | 0.05 | 80 | 1016.1 |
| 20260507013904 | 23 | 346 | 3.2 | 4.8 | 0.00 | 0.05 | 0.05 | 82 | 1016.3 |
| 20260507013402 | 23 | 352 | 4.8 | 6.4 | 0.00 | 0.05 | 0.05 | 82 | 1016.6 |
| 20260507012859 | 23 | 41 | 3.2 | 6.4 | 0.05 | 0.05 | 0.05 | 83 | 1016.3 |
| 20260507012355 | 23 | 28 | 3.2 | 4.8 | 0.05 | 0.05 | 0.05 | 84 | 1016.3 |
| 20260507011853 | 23 | 25 | 3.2 | 6.4 | 0.00 | 0.05 | 0.05 | 83 | 1016.4 |
| 20260507011349 | 23 | 15 | 3.2 | 4.8 | 0.00 | 0.05 | 0.05 | 84 | 1016.5 |
| 20260507010849 | 23 | 354 | 3.2 | 4.8 | 0.05 | 0.05 | 0.05 | 84 | 1016.4 |
| 20260507010345 | 23 | 5 | 1.6 | 4.8 | 0.18 | 0.05 | 0.05 | 83 | 1016.6 |
| 20260507005842 | 23 | 27 | 3.2 | 6.4 | 0.13 | 0.05 | 0.05 | 81 | 1016.4 |
| 20260507005339 | 24 | 8 | 3.2 | 4.8 | 0.00 | 0.03 | 0.03 | 79 | 1016.5 |
| 20260507004836 | 24 | 6 | 4.8 | 6.4 | 0.00 | 0.03 | 0.03 | 77 | 1016.7 |
| 20260507004333 | 24 | 39 | 4.8 | 4.8 | 0.00 | 0.03 | 0.03 | 78 | 1016.7 |
| 20260507003830 | 24 | 357 | 3.2 | 8.0 | 0.00 | 0.03 | 0.03 | 78 | 1016.6 |
| 20260507003325 | 24 | 15 | 4.8 | 6.4 | 0.00 | 0.03 | 0.03 | 78 | 1016.6 |
| 20260507002820 | 24 | 52 | 4.8 | 11.3 | 0.00 | 0.03 | 0.03 | 77 | 1016.6 |
| 20260507002317 | 24 | 355 | 4.8 | 4.8 | 0.00 | 0.03 | 0.03 | 78 | 1016.8 |
| 20260507001815 | 24 | 36 | 4.8 | 6.4 | 0.00 | 0.03 | 0.03 | 77 | 1016.7 |
| 20260507001312 | 24 | 47 | 4.8 | 8.0 | 0.00 | 0.03 | 0.03 | 77 | 1016.8 |
| 20260507000808 | 24 | 18 | 4.8 | 6.4 | 0.00 | 0.03 | 0.03 | 78 | 1017.0 |
| 20260507000306 | 24 | 59 | 6.4 | 9.7 | 0.00 | 0.03 | 0.03 | 77 | 1017.2 |
| 20260506235800 | 25 | 40 | 4.8 | 8.0 | 0.00 | 0.03 | 0.03 | 76 | 1017.0 |
| 20260506235256 | 25 | 17 | 4.8 | 8.0 | 0.00 | 0.03 | 0.03 | 77 | 1017.2 |
| 20260506234753 | 25 | 62 | 3.2 | 8.0 | 0.00 | 0.03 | 0.03 | 76 | 1017.3 |
| 20260506234250 | 24 | 343 | 6.4 | 6.4 | 0.00 | 0.03 | 0.03 | 79 | 1017.0 |
| 20260506233748 | 24 | 314 | 1.6 | 4.8 | 0.00 | 0.03 | 0.03 | 79 | 1017.2 |
| 20260506233244 | 24 | 50 | 4.8 | 6.4 | 0.00 | 0.03 | 0.03 | 81 | 1017.4 |
| 20260506232742 | 24 | 38 | 4.8 | 6.4 | 0.05 | 0.03 | 0.03 | 81 | 1017.0 |
| 20260506232241 | 23 | 354 | 3.2 | 6.4 | 0.05 | 0.03 | 0.03 | 82 | 1017.0 |
| 20260506231739 | 24 | 30 | 6.4 | 6.4 | 0.05 | 0.00 | 0.00 | 81 | 1017.1 |
| 20260506231237 | 24 | 21 | 3.2 | 8.0 | 0.05 | 0.00 | 0.00 | 81 | 1017.1 |
| 20260506230734 | 24 | 53 | 3.2 | 8.0 | 0.00 | 0.00 | 0.00 | 80 | 1017.2 |
| 20260506230231 | 25 | 31 | 4.8 | 8.0 | 0.00 | 0.00 | 0.00 | 75 | 1017.1 |
| 20260506225727 | 25 | 2 | 4.8 | 6.4 | 0.00 | 0.00 | 0.00 | 74 | 1017.1 |
| 20260506225225 | 25 | 356 | 4.8 | 8.0 | 0.00 | 0.00 | 0.00 | 72 | 1017.0 |
| 20260506224721 | 25 | 95 | 8.0 | 11.3 | 0.00 | 0.00 | 0.00 | 71 | 1017.1 |
| 20260506224218 | 25 | 42 | 3.2 | 9.7 | 0.00 | 0.00 | 0.00 | 71 | 1017.1 |
| 20260506223714 | 26 | 54 | 4.8 | 9.7 | 0.00 | 0.00 | 0.00 | 70 | 1017.0 |
| 20260506223210 | 26 | 57 | 8.0 | 9.7 | 0.00 | 0.00 | 0.00 | 68 | 1017.4 |
| 20260506222707 | 27 | 71 | 4.8 | 6.4 | 0.00 | 0.00 | 0.00 | 66 | 1017.1 |
| 20260506222202 | 28 | 35 | 4.8 | 8.0 | 0.00 | 0.00 | 0.00 | 61 | 1017.3 |
| 20260506221701 | 28 | 0 | 6.4 | 9.7 | 0.00 | 0.00 | 0.00 | 58 | 1017.2 |
| 20260506221159 | 29 | 27 | 3.2 | 4.8 | 0.00 | 0.00 | 0.00 | 58 | 1017.1 |
| 20260506220655 | 30 | 29 | 3.2 | 6.4 | 0.00 | 0.00 | 0.00 | 58 | 1017.5 |
| 20260506220150 | 30 | 51 | 4.8 | 6.4 | 0.00 | 0.00 | 0.00 | 56 | 1017.3 |
| 20260506215647 | 29 | 6 | 3.2 | 6.4 | 0.00 | 0.00 | 0.00 | 58 | 1017.2 |
| 20260506215142 | 28 | 23 | 6.4 | 9.7 | 0.00 | 0.00 | 0.00 | 59 | 1017.2 |
| 20260506214640 | 28 | 300 | 3.2 | 12.9 | 0.00 | 0.00 | 0.00 | 59 | 1017.4 |
| 20260506214137 | 28 | 14 | 4.8 | 8.0 | 0.00 | 0.00 | 0.00 | 59 | 1017.7 |
| 20260506213635 | 28 | 1 | 1.6 | 6.4 | 0.00 | 0.00 | 0.00 | 61 | 1017.7 |
| 20260506213132 | 27 | 340 | 4.8 | 6.4 | 0.00 | 0.00 | 0.00 | 62 | 1017.7 |
| 20260506212630 | 27 | 29 | 4.8 | 8.0 | 0.00 | 0.00 | 0.00 | 64 | 1017.8 |
| 20260506212124 | 27 | 79 | 4.8 | 8.0 | 0.00 | 0.00 | 0.00 | 64 | 1017.9 |
| 20260506211620 | 27 | 87 | 6.4 | 8.0 | 0.00 | 0.00 | 0.00 | 62 | 1017.9 |
| 20260506211117 | 27 | 39 | 6.4 | 6.4 | 0.00 | 0.00 | 0.00 | 62 | 1018.0 |
| 20260506210614 | 27 | 353 | 4.8 | 6.4 | 0.00 | 0.00 | 0.00 | 60 | 1017.8 |
| 20260506210110 | 28 | 14 | 4.8 | 8.0 | 0.00 | 0.00 | 0.00 | 58 | 1018.1 |
| 20260506205607 | 28 | 316 | 4.8 | 6.4 | 0.00 | 0.00 | 0.00 | 59 | 1017.9 |
| 20260506205102 | 28 | 32 | 4.8 | 6.4 | 0.00 | 0.00 | 0.00 | 59 | 1018.0 |
| 20260506204600 | 28 | 6 | 3.2 | 9.7 | 0.00 | 0.00 | 0.00 | 59 | 1018.0 |
| 20260506204057 | 28 | 277 | 6.4 | 9.7 | 0.00 | 0.00 | 0.00 | 59 | 1017.9 |
| 20260506203556 | 28 | 333 | 3.2 | 6.4 | 0.00 | 0.00 | 0.00 | 59 | 1017.9 |
| 20260506203052 | 28 | 12 | 3.2 | 6.4 | 0.00 | 0.00 | 0.00 | 61 | 1017.8 |
| 20260506202549 | 27 | 335 | 3.2 | 6.4 | 0.00 | 0.00 | 0.00 | 64 | 1017.8 |
| 20260506202045 | 26 | 340 | 1.6 | 8.0 | 0.00 | 0.00 | 0.00 | 64 | 1018.0 |
| 20260506201543 | 27 | 342 | 3.2 | 8.0 | 0.00 | 0.00 | 0.00 | 64 | 1017.9 |
| 20260506201040 | 26 | 359 | 4.8 | 4.8 | 0.00 | 0.00 | 0.00 | 65 | 1018.0 |
| 20260506200536 | 27 | 0 | 6.4 | 11.3 | 0.00 | 0.00 | 0.00 | 62 | 1017.9 |
| 20260506200033 | 27 | 9 | 3.2 | 8.0 | 0.00 | 0.00 | 0.00 | 63 | 1017.9 |
| 20260506195530 | 27 | 28 | 4.8 | 9.7 | 0.00 | 0.00 | 0.00 | 63 | 1017.8 |
| 20260506195026 | 27 | 22 | 3.2 | 6.4 | 0.00 | 0.00 | 0.00 | 64 | 1017.9 |
| 20260506194524 | 27 | 318 | 8.0 | 8.0 | 0.00 | 0.00 | 0.00 | 63 | 1017.7 |
| 20260506194020 | 26 | 37 | 3.2 | 6.4 | 0.00 | 0.00 | 0.00 | 65 | 1017.7 |
| 20260506193517 | 26 | 336 | 4.8 | 6.4 | 0.00 | 0.00 | 0.00 | 65 | 1017.9 |
| 20260506193014 | 26 | 0 | 3.2 | 8.0 | 0.00 | 0.00 | 0.00 | 65 | 1017.8 |
| 20260506192511 | 26 | 339 | 4.8 | 4.8 | 0.00 | 0.00 | 0.00 | 66 | 1017.9 |
| 20260506192007 | 26 | 330 | 4.8 | 8.0 | 0.00 | 0.00 | 0.00 | 67 | 1017.7 |
| 20260506191504 | 26 | 325 | 3.2 | 6.4 | 0.00 | 0.00 | 0.00 | 67 | 1017.5 |
| 20260506191000 | 25 | 318 | 1.6 | 8.0 | 0.00 | 0.00 | 0.00 | 67 | 1017.5 |
| 20260506190457 | 25 | 347 | 1.6 | 8.0 | 0.00 | 0.00 | 0.00 | 67 | 1017.5 |
| 20260506185954 | 25 | 23 | 3.2 | 9.7 | 0.00 | 0.00 | 0.00 | 67 | 1017.4 |
| 20260506185451 | 25 | 358 | 4.8 | 8.0 | 0.00 | 0.00 | 0.00 | 66 | 1017.3 |
| 20260506184948 | 26 | 2 | 6.4 | 8.0 | 0.00 | 0.00 | 0.00 | 65 | 1017.2 |
| 20260506184445 | 25 | 5 | 4.8 | 6.4 | 0.00 | 0.00 | 0.00 | 67 | 1017.3 |
| 20260506183942 | 25 | 321 | 3.2 | 6.4 | 0.00 | 0.00 | 0.00 | 67 | 1017.5 |
| 20260506183438 | 25 | 329 | 3.2 | 4.8 | 0.00 | 0.00 | 0.00 | 66 | 1017.4 |
| 20260506182935 | 25 | 321 | 3.2 | 6.4 | 0.00 | 0.00 | 0.00 | 66 | 1017.7 |
| 20260506182432 | 25 | 328 | 3.2 | 6.4 | 0.00 | 0.00 | 0.00 | 66 | 1017.7 |
| 20260506181929 | 25 | 338 | 3.2 | 8.0 | 0.00 | 0.00 | 0.00 | 66 | 1017.3 |
| 20260506181427 | 25 | 2 | 3.2 | 6.4 | 0.00 | 0.00 | 0.00 | 66 | 1017.3 |
| 20260506180924 | 25 | 334 | 3.2 | 6.4 | 0.00 | 0.00 | 0.00 | 65 | 1017.5 |
| 20260506180420 | 24 | 346 | 3.2 | 3.2 | 0.00 | 0.00 | 0.00 | 65 | 1017.2 |
| 20260506175917 | 23 | 324 | 6.4 | 6.4 | 0.00 | 0.00 | 0.00 | 66 | 1017.4 |
| 20260506175414 | 23 | 348 | 4.8 | 8.0 | 0.00 | 0.00 | 0.00 | 65 | 1017.5 |
| 20260506174910 | 23 | 332 | 3.2 | 6.4 | 0.00 | 0.00 | 0.00 | 65 | 1017.5 |
| 20260506174408 | 24 | 1 | 3.2 | 4.8 | 0.00 | 0.00 | 0.00 | 65 | 1017.3 |
| 20260506173905 | 23 | 17 | 0.0 | 3.2 | 0.00 | 0.00 | 0.00 | 65 | 1017.4 |
| 20260506173402 | 23 | 4 | 3.2 | 4.8 | 0.00 | 0.00 | 0.00 | 65 | 1017.5 |
| 20260506172859 | 23 | 358 | 3.2 | 6.4 | 0.00 | 0.00 | 0.00 | 66 | 1017.5 |
| 20260506172355 | 23 | 319 | 3.2 | 4.8 | 0.00 | 0.00 | 0.00 | 67 | 1017.1 |
| 20260506171853 | 22 | 23 | 4.8 | 6.4 | 0.00 | 0.00 | 0.00 | 68 | 1017.2 |
| 20260506171350 | 22 | 12 | 3.2 | 4.8 | 0.00 | 0.00 | 0.00 | 69 | 1017.1 |
| 20260506170848 | 22 | 14 | 3.2 | 4.8 | 0.00 | 0.00 | 0.00 | 69 | 1017.1 |
| 20260506170344 | 22 | 352 | 1.6 | 4.8 | 0.00 | 0.00 | 0.00 | 71 | 1017.0 |